Starlink 3071

operational
NORAD ID: 49147 Int'l Des: 2021-082 Owner: SPXS Country: US Constellation: starlink
LEOCIRCULAR

关于 Starlink 3071

正在加载描述...

实时位置

正在加载3D地球...

即将过境

高度历史

Altitude vs Time

uPlot chart will show altitude changes over time

两行轨道根数

1 49147U 21082T 26036.01780458 -.00000527 00000-0 -36376-4 0 9993
2 49147 70.0011 336.8360 0002916 257.9602 102.1230 14.98328921242075
Epoch: Feb 5, 2026 • Age: 21 hours

当前状态

高度 578.6 km
速度 7.57 km/s
星下点 38.64°N, 106.2°W
发射日期 Sep 14, 2021
运行时间 4.3 years
类型 internet

技术详情

分类 Payload
质量 297.00 kg
干质量 275.00 kg
总质量 297.00 kg
长度 0.20 m
直径 2.80 m
跨度 9.00 m
形状 Box + pan
制造商 SPXS
平台类型 Starlink
阶段状态 In Orbit
所有者/国家 SPXS/US

大型星座

Loading constellations...